Location: Cienega
(34.0211°N, 118.3284°W)
Time: 12:09:46
(UTC+00:00)

Daily predictions for brighter satellites

Satellite Brightness Start Highest point End
(mag) Time Altitude Azimuth Time Altitude Azimuth Time Altitude Azimuth
Cosmos 1092 Rocket 4.0 12:11:54 10° S 12:18:09 76° E 12:24:21 10° N
Cosmos 2278 4.0 12:22:39 57° SSE 12:22:39 57° SSE 12:27:03 10° SSE
BREEZE-M DEB (TANK) 3.9 12:22:32 67° ENE 12:22:32 67° ENE 12:25:40 10° ESE
NOSS 3-1 (A) 4.2 12:23:16 46° NNW 12:26:08 80° ENE 12:35:31 10° SSE
Cosmos 2360 Rocket 2.4 12:34:48 48° N 12:36:13 66° ENE 12:41:46 10° SSE
Meteor 1-26 Rocket 4.3 12:37:06 35° N 12:39:37 77° E 12:45:29 10° SSE
Cosmos 2219 Rocket 3.0 12:45:01 20° N 12:48:38 47° ENE 12:54:01 10° SE
Meteor 2-2 Rocket 4.2 12:52:05 29° NNW 12:55:12 80° W 13:01:06 10° S
ARIANE 6 FM1 Upper Stage 2.6 12:56:32 75° SSE 12:56:47 79° ESE 13:00:48 10° NE
OAO 2 Rocket 3.2 12:56:29 64° WNW 12:57:17 85° N 13:02:30 10° E
OAO 3 Copernicus 4.3 13:00:37 57° WSW 13:01:28 69° SSW 13:06:27 10° ESE
OAO 3 Rocket 2.9 13:01:45 68° WNW 13:02:16 80° N 13:06:56 10° E
SL-08 ROCKET BODY 4.3 12:57:32 10° S 13:03:22 86° E 13:09:14 10° N
COSMO-SKYMED 1 3.9 13:00:14 10° SE 13:03:59 36° ENE 13:07:47 10° N
Cosmos 1602 Rocket 4.1 13:00:07 10° S 13:04:29 60° E 13:08:51 10° NNE
Cosmos 2322 Rocket 2.2 13:03:18 44° NW 13:04:49 60° WSW 13:10:20 10° S
Cosmos-2242 3.5 13:06:10 42° SW 13:06:10 42° SW 13:09:12 10° S
Cosmos 2333 Rocket 2.5 13:05:35 42° W 13:05:55 42° WSW 13:11:14 10° S
FengYun 1-2 T 4.3 13:00:40 10° N 13:06:06 50° WNW 13:11:30 10° SW
Cosmos 2344 3.9 12:58:35 10° SSW 13:07:17 68° ESE 13:14:28 10° NE
IRIDIUM 103 4.3 13:09:13 10° S 13:14:26 89° E 13:19:40 10° N
ATLAS 3B R/B 4.3 13:12:34 10° NNW 13:19:24 33° NE 13:25:53 10° ESE
ATLAS CENTAUR R/B 3.3 13:17:10 10° S 13:19:53 24° ESE 13:22:38 10° ENE
Helios 1A Rocket 3.7 13:18:25 10° SE 13:21:32 40° ENE 13:24:42 10° N
Cosmos 2058 Rocket 4.2 13:30:03 24° WSW 13:30:03 24° WSW 13:32:42 10° SW
Cosmos 1125 Rocket 3.7 13:24:23 10° NNW 13:29:38 73° ENE 13:34:48 10° SSE
Okean 1-7 Rocket 3.6 13:26:16 10° S 13:30:45 82° E 13:35:11 10° N
SKYMED 2 3.6 13:28:01 10° S 13:32:16 59° W 13:35:59 14° NNW
Cosmos 44 3.8 13:31:17 29° W 13:32:31 33° NW 13:36:51 10° N
IRIDIUM 106 4.3 13:27:37 10° SSW 13:32:44 59° W 13:37:53 10° N
Cosmos 1707 3.3 13:30:47 10° N 13:33:46 43° E 13:36:44 10° SSE
Cosmos 2333 4.5 13:31:51 21° NW 13:35:21 46° WSW 13:40:42 10° S
Cosmos 1825 Rocket 4.0 13:31:38 10° S 13:35:59 65° E 13:40:21 10° NNE
Cosmos 2151 2.9 13:32:33 10° SSW 13:36:31 52° W 13:40:33 10° N
BREEZE-M DEB (TANK) 3.3 13:30:55 10° WSW 13:36:52 59° NW 13:39:31 10° NE
SL-16 R/B 3.9 13:38:09 15° WSW 13:38:09 15° WSW 13:40:21 10° SW
Cosmos 1484 Rocket 2.4 13:35:37 10° NNE 13:38:58 84° ESE 13:42:18 10° S
Cosmos 1758 Rocket 4.4 13:38:41 10° SW 13:42:24 27° WNW 13:46:06 10° NNW
Cosmos 2208 Rocket 3.9 13:37:43 10° SSW 13:42:55 72° WNW 13:48:06 10° NNE
CZ-4 R/B 4.5 13:43:13 10° N 13:47:12 30° WNW 13:51:12 10° SW
COSMOS 2428 3.3 13:50:21 10° NNW 13:56:00 60° ENE 14:01:36 10° SSE
ATLAS 2AS CENTAUR R/B 3.8 13:53:23 14° W 13:57:32 22° NW 14:02:46 10° N
ISS -1.4 13:59:06 10° NNW 13:59:15 10° NNW 13:59:51 10° NNW
Meteor 1-19 Rocket 4.3 13:54:22 10° NNW 14:00:18 75° W 14:06:18 10° S
SL-4 R/B 3.0 13:59:09 15° W 14:00:35 20° SW 14:02:57 10° S
KORONAS-FOTON 3.5 13:59:12 10° NNW 14:02:31 58° W 14:05:50 10° S
Cosmos 1437 Rocket 2.9 14:03:30 10° NNW 14:06:47 39° W 14:10:05 10° SSW
Meteor 1-10 Rocket 4.3 14:01:02 10° NNW 14:06:57 71° W 14:12:48 10° S
IGS 5A 3.6 14:04:14 10° N 14:08:05 46° WNW 14:11:54 10° SSW
Cosmos 2315 Rocket 4.1 14:04:42 10° N 14:11:03 87° E 14:17:17 10° S
Cosmos 2297 Rocket 2.2 14:06:05 10° SSW 14:11:42 74° WNW 14:17:22 10° NNE
S3M 3.9 14:05:40 10° NNW 14:11:44 69° W 14:17:47 10° S
USA 276 3.2 14:11:22 12° W 14:13:14 20° NW 14:15:19 10° NNE
USA 290 3.3 14:11:33 10° WSW 14:14:09 23° WNW 14:16:47 10° NNW
Cosmos 1805 3.9 14:11:44 10° S 14:14:57 48° E 14:18:11 10° NNE
ARIANE 5 R/B 3.3 14:10:21 10° NNE 14:15:31 60° ESE 14:20:37 10° S
Cosmos 2221 3.3 14:12:42 10° NNW 14:16:15 28° W 14:19:47 10° SSW
Cosmos 2360 Rocket 3.9 14:17:03 10° WNW 14:19:29 13° W 14:21:55 10° SW
Cosmos 1174 4.2 14:15:37 10° NW 14:20:28 57° WSW 14:24:21 10° SSE
Cosmos 1655 Rocket 4.0 14:17:05 10° SSW 14:23:23 69° W 14:29:40 10° N
Orbus 7S? 2.9 14:24:04 10° NW 14:26:45 72° SW 14:30:59 10° SSE
